E80.026750) China. Observers T. Chen, D. W. E. Green. 0.3-m f/7.2
reflector + CCD.
(P13) Baihuashan Observatory, Beijing (N39.837554 E115.573330) China.
Observers Z. Wang, B. Liu. Measurer Z. Wang. 0.28-m f/2.2 reflector + CMO.
(Q06) Tarui Observatory, Tarui (N35.394791 E136.495470) Japan. Observer H.
Watanabe. 0.35-m f/1.9 Schmidt-Cassegrain + CMO.
(Q10) Toyokawa Observatory (N34.843616 E137.329440) Japan. Observer M.
Ishiguro. 0.20-m f/5 reflector + CCD.
(T05) ATLAS-HKO, Haleakala (N20.707551 W156.257010) US/Hawaii. Observers
L. Denneau, R. Siverd, J. Tonry, H. Weiland. Measurers L. Denneau, N.
Erasmus, A. Fitzsimmons, J. Robinson, R. Siverd, J. Tonry, H. Weiland.
0.5-m f/2.0 Schmidt + CCD.
(U55) Golden Ears Observatory, Maple Ridge (N49.253277 W122.585440)
Canada/BritColumbia. Observer B. Kumar. 0.36-m f/7 Schmidt-Cassegrain +
CCD.
(U74) JPL SynTrack Robotic Telescope 2, Auberry (N37.070341 W119.412800)
US/California. Observers N. Saini, C. Zhai, R. Trahan, M. Zhan, M. Shao.
0.36-m f/2.2 Schmidt.
(U95) USA1/HCRO, Pie Town (N34.321830 W108.170330) US/New Mexico.
(W05) Tree Gate Farm Observatory, Starkville (N33.347635 W88.732810).
Observer J.-F. Gout. 0.5-m f/1.5 reflector + CMOS.
(W27) RCNS, New Milford (N41.525582 W73.426170) US/Connecticut.
(X04) MCD Observatory, Saint-Anaclet (N48.469951 W68.432530).
Orbital elements: C45RCE1
Perihelion 2026 Jan 15.063899 +/- 0.00136 TT = 1:32:00.8 (JD 2461055.563899)
Epoch 2026 Feb 6.0 TT = JDT 2461077.5 Earth MOID: 0.0098 Ma: 0.0251
M 6.288618068 +/- 0.006 (J2000 ecliptic) AutoNEOCP
n 0.286678933 +/- 0.000272 Peri. 106.472064 +/- 0.008
a 2.277922069 +/- 0.00144 Node 2.575724 +/- 0.007
e 0.57555966 +/- 0.000271 Incl. 0.690474 +/- 0.00029
P 3.43802 H 25.40 G 0.15 U 7.2
q 0.966842002 +/- 5.89e-6 Q 3.589002137 +/- 0.00289
100 of 106 observations 2026 Feb. 4-6; mean residual 0".53
Residuals in arcseconds: 260203 I41( 2.4- 1.1-) 260204 958 .12- .04- 260205 658 1.0+ .15- 260203 I41( 6.1+ .90+) 260204 958 .36- .24- 260205 658 .43+ .20- 260204 I41 .39+ 1.4+ 260204 958 .32- .27- 260205 658 .76+ .53- 260204 I41( 1.7- 2.0+) 260204 C23 .22+ .44+ 260205 T05 .09- .22+ 260204 I41 1.8+ .78- 260204 C23 .76+ .41- 260205 T05 .35+ .13- 260204 I41 1.4+ .32- 260204 C23 .97+ .55+ 260205 T05 .33+ .04- 260204 703 .26- 1.4- 260204 C23 .03+ .45+ 260205 900 .21- .36+ 260204 703 .57- .53- 260204 C23 .03- .40+ 260205 900 .37- .08- 260204 703 .13- .28+ 260204 C23 .66+ .12- 260205 900 .03- .07+ 260204 I52 .03+ .15- 260204 C23 .37+ .59+ 260205 151 .41- .21+ 260204 I52 .02- .16- 260204 C23 .28+ .29- 260205 151 .51- .05+ 260204 I52 .11+ .21- 260205 U55 .49- .36- 260205 151 .50- .24+ 260204 I52 .29- .04- 260205 U55 .74- .62+ 260205 151 1.8- .68+ 260204 I52 .12+ .18- 260205 718 1.3+ .47+ 260205 C40 .23+ .53- 260204 I52 .07+ .09+ 260205 718 .17- .47- 260205 C40 .04+ .15- 260204 I52 .17+ .00 260205 718 1.1+ .11- 260205 C40 .01- .36+ 260204 I52 .25- .08- 260205 U95 .01+ .08- 260206 X04 .22- .13+ 260204 900 .27- .02+ 260205 U95 .30- .21- 260206 X04 .05- .20+ 260204 900 .19- .19+ 260205 U95 .37+ .33- 260206 X04 .25- .37+ 260204 900 .42- .57- 260205 W05 1.5+ .82- 260206 W27 .60+ .73- 260204 P13 .27- .22- 260205 W05( 1.8+ 1.1+) 260206 W27 .47+ .60- 260204 P13 .16- .07- 260205 W05 1.1- .15+ 260206 W27 .67+ .69- 260204 P13 .10- .18- 260205 H21 .21+ .20- 260206 W27 .62+ .69- 260204 P13 .04+ .12- 260205 H21 .08+ .41- 260206 H21 .14- .17+ 260204 Q10( 2.7- 1.3+) 260205 H21 .28+ .23- 260206 H21 .02- .17+ 260204 Q10 1.9- .70+ 260205 H21 .39+ .15- 260206 H21 .30- .18+ 260204 Q10( 3.0- .01-) 260205 703 .61+ .09+ 260206 H21 .05- .18+ 260204 N56 .11- .07- 260205 703 .23+ .17- 260206 718 .71+ .00 260204 N56 .04- .11+ 260205 703 .58- .41- 260206 718 .10- .11+ 260204 N56 .54+ .11+ 260205 703 .40+ .24+ 260206 703 .69- .25+ 260204 L04 .18- .35+ 260205 U74 .59+ 1.2+ 260206 703 .13- .44- 260204 L04 .11+ .05+ 260205 U74 .19- .88- 260206 703 .71- .31+ 260204 L04 .34+ .01+ 260205 658 .60+ .28+ 260206 718 1.0- .57+ 260204 Q06 1.0- .60+ 260205 658 .31+ .23- 260206 703 .48+ .04+ 260204 Q06 1.6- .54+ 260205 658 .13+ .19+ 260204 Q06 1.1- .60+ 260205 658 .92+ .23+ Ephemerides (geocentric): Date (UTC) HH RA Dec delta r elong mag " sig PA ---- -------- ------------ ------------ ------ ------ ----- --- -------- 2026 02 06 19 10 01 26.592 +31 42 44.74 .02742 1.0122 161.3 18.6 .011 36 2026 02 06 20 10 02 29.716 +31 29 54.05 .02757 1.0124 161.4 18.6 .011 44 2026 02 06 21 10 03 31.861 +31 17 09.81 .02773 1.0125 161.4 18.6 .011 53 2026 02 06 22 10 04 33.046 +31 04 32.03 .02788 1.0127 161.5 18.6 .012 60 2026 02 06 23 10 05 33.291 +30 52 00.69 .02803 1.0128 161.6 18.6 .012 67 2026 02 07 00 10 06 32.616 +30 39 35.79 .02819 1.0130 161.6 18.6 .013 73 2026 02 07 01 10 07 31.037 +30 27 17.30 .02834 1.0132 161.7 18.6 .014 78 2026 02 07 02 10 08 28.574 +30 15 05.21 .02850 1.0133 161.7 18.6 .016 83 2026 02 07 03 10 09 25.243 +30 02 59.51 .02865 1.0135 161.7 18.6 .017 87 2026 02 07 04 10 10 21.063 +29 51 00.16 .02881 1.0136 161.8 18.6 .018 90 2026 02 07 05 10 11 16.051 +29 39 07.14 .02897 1.0138 161.8 18.7 .020 93 2026 02 07 06 10 12 10.221 +29 27 20.42 .02913 1.0140 161.8 18.7 .021 96 2026 02 07 07 10 13 03.592 +29 15 39.99 .02929 1.0141 161.9 18.7 .022 98 2026 02 07 08 10 13 56.177 +29 04 05.79 .02945 1.0143 161.9 18.7 .024 100 2026 02 07 09 10 14 47.994 +28 52 37.81 .02961 1.0145 161.9 18.7 .025 102 2026 02 07 10 10 15 39.056 +28 41 16.01 .02977 1.0146 161.9 18.7 .027 104 2026 02 07 11 10 16 29.378 +28 30 00.35 .02993 1.0148 161.9 18.7 .028 106 2026 02 07 12 10 17 18.976 +28 18 50.79 .03009 1.0150 162.0 18.7 .030 107 2026 02 07 13 10 18 07.862 +28 07 47.30 .03026 1.0151 162.0 18.8 .032 108 2026 02 07 14 10 18 56.050 +27 56 49.84 .03042 1.0153 162.0 18.8 .033 109 2026 02 07 15 10 19 43.554 +27 45 58.36 .03059 1.0155 162.0 18.8 .035 110 2026 02 07 16 10 20 30.387 +27 35 12.82 .03075 1.0156 162.0 18.8 .036 111 2026 02 07 17 10 21 16.561 +27 24 33.19 .03092 1.0158 162.0 18.8 .038 112 2026 02 07 18 10 22 02.090 +27 13 59.41 .03108 1.0160 162.0 18.8 .039 113 2026 02 07 19 10 22 46.984 +27 03 31.45 .03125 1.0161 162.0 18.8 .041 114 2026 02 07 20 10 23 31.257 +26 53 09.25 .03142 1.0163 162.0 18.8 .043 115 2026 02 07 21 10 24 14.920 +26 42 52.77 .03159 1.0164 162.0 18.8 .044 115 2026 02 07 22 10 24 57.984 +26 32 41.97 .03176 1.0166 162.0 18.9 .046 116 2026 02 07 23 10 25 40.460 +26 22 36.80 .03193 1.0168 162.0 18.9 .047 117 2026 02 08 00 10 26 22.359 +26 12 37.21 .03210 1.0170 161.9 18.9 .049 117 2026 02 08 01 10 27 03.692 +26 02 43.15 .03227 1.0171 161.9 18.9 .051 118 2026 02 08 02 10 27 44.470 +25 52 54.58 .03244 1.0173 161.9 18.9 .052 118 2026 02 08 03 10 28 24.701 +25 43 11.44 .03261 1.0175 161.9 18.9 .054 119 2026 02 08 04 10 29 04.397 +25 33 33.69 .03278 1.0176 161.9 18.9 .055 119 2026 02 08 05 10 29 43.567 +25 24 01.28 .03295 1.0178 161.9 18.9 .057 120 2026 02 08 06 10 30 22.220 +25 14 34.16 .03312 1.0180 161.9 19.0 .059 120 2026 02 08 07 10 31 00.366 +25 05 12.28 .03330 1.0181 161.8 19.0 .060 121 2026 02 08 08 10 31 38.014 +24 55 55.60 .03347 1.0183 161.8 19.0 .062 121 2026 02 08 09 10 32 15.172 +24 46 44.06 .03365 1.0185 161.8 19.0 .063 122 2026 02 08 10 10 32 51.850 +24 37 37.61 .03382 1.0186 161.8 19.0 .065 122 2026 02 08 11 10 33 28.056 +24 28 36.20 .03400 1.0188 161.7 19.0 .066 122 2026 02 08 12 10 34 03.798 +24 19 39.79 .03417 1.0190 161.7 19.0 .068 123 2026 02 08 13 10 34 39.084 +24 10 48.33 .03435 1.0192 161.7 19.0 .069 123 2026 02 08 14 10 35 13.922 +24 02 01.77 .03452 1.0193 161.7 19.1 .071 123 2026 02 08 15 10 35 48.321 +23 53 20.05 .03470 1.0195 161.6 19.1 .072 124 2026 02 08 16 10 36 22.287 +23 44 43.13 .03488 1.0197 161.6 19.1 .074 124 2026 02 08 17 10 36 55.828 +23 36 10.97 .03506 1.0198 161.6 19.1 .075 124 2026 02 08 18 10 37 28.951 +23 27 43.50 .03524 1.0200 161.6 19.1 .077 125